This is the latest recevied weather packets stored in our database for station/object K0CPM-2. If no packets are shown the sender has not sent any weather packets the latest 10 day(s).
| Time | Temp. | Humidity | Pressure | Rain* | Wind** | Luminosity | Snow |
|---|---|---|---|---|---|---|---|
| 1778111115 | 27.22° C | 88% | 1008.1 hPa | 0 mm | - | - | - |
| 1778110217 | 27.78° C | 86% | 1007.9 hPa | 0 mm | - | - | - |
| 1778109315 | 27.78° C | 85% | 1007.9 hPa | 0 mm | - | - | - |
| 1778108416 | 28.33° C | 84% | 1007.8 hPa | 0 mm | - | - | - |
| 1778107512 | 28.33° C | 83% | 1007.8 hPa | 0 mm | - | - | - |
| 1778106610 | 28.89° C | 82% | 1008.1 hPa | 0 mm | - | - | - |
| 1778105711 | 29.44° C | 80% | 1008.1 hPa | 0 mm | - | - | - |
| 1778104809 | 29.44° C | 80% | 1008.2 hPa | 0 mm | - | - | - |
| 1778103908 | 29.44° C | 79% | 1008.2 hPa | 0 mm | - | - | - |
| 1778103010 | 30.56° C | 77% | 1008.4 hPa | 0 mm | - | - | - |
| 1778102105 | 30.56° C | 75% | 1008.4 hPa | 0 mm | - | - | - |
| 1778101208 | 30° C | 77% | 1008.5 hPa | 0 mm | - | - | - |
| 1778100305 | 30° C | 79% | 1008.6 hPa | 0 mm | - | - | - |
| 1778099401 | 31.11° C | 77% | 1008.8 hPa | 0 mm | - | - | - |
| 1778098560 | 30.56° C | 77% | 1009.1 hPa | 0 mm | - | - | - |
| 1778097703 | 30.56° C | 78% | 1009.3 hPa | 0 mm | - | - | - |
| 1778096770 | 30.56° C | 76% | 1009.6 hPa | 0 mm | - | - | - |
| 1778095854 | 30° C | 78% | 1009.8 hPa | 0 mm | - | - | - |
| 1778094953 | 29.44° C | 79% | 1010.1 hPa | 0 mm | - | - | - |
| 1778094052 | 29.44° C | 79% | 1010.3 hPa | 0 mm | - | - | - |
| 1778093154 | 28.89° C | 81% | 1010.5 hPa | 0 mm | - | - | - |
| 1778092250 | 29.44° C | 81% | 1010.6 hPa | 0 mm | - | - | - |
| 1778091349 | 30° C | 82% | 1010.6 hPa | 0 mm | - | - | - |
| 1778090451 | 29.44° C | 84% | 1010.6 hPa | 0 mm | - | - | - |
| 1778089542 | 28.89° C | 85% | 1010.9 hPa | 0 mm | - | - | - |
* Rain latest hour (hover to see other rain measurements)
** Current wind speed in m/s (hover to see current wind gust speed)